Wind_Speed
12 12 11 11 11 12 11 10 9 9 11 14 15 17 19 20 21 22 22 23 23 23 25 27 28 29 30 31 31 31 31 32 30 29 30 28 28 27 25 25 26 25 24 25
12 12 11 12 11 11 11 11 10 11 12 15 18 21 21 22 23 23 23 23 24 25 25 27 28 29 29 29 30 30 30 31 31 30 29 29 29 27 27 25 25 24 24 23
13 13 12 11 10 11 11 11 11 13 15 18 20 22 24 24 23 24 23 23 22 23 24 26 27 28 28 29 30 30 29 29 30 30 30 29 29 28 26 25 25 24 23 22
14 13 12 11 10 10 11 11 12 14 17 19 20 23 23 24 23 23 22 21 20 20 22 23 25 26 27 28 28 29 29 29 29 30 29 29 28 27 26 24 23 22 23 24
13 13 12 12 11 11 12 11 13 15 16 17 19 22 22 22 21 21 23 22 21 21 22 24 25 25 27 28 28 28 28 28 29 29 29 30 30 29 28 27 25 23 24 25
12 12 11 11 11 12 13 14 15 15 16 16 17 21 21 21 22 23 25 24 23 22 22 23 24 24 25 26 27 26 28 28 28 28 29 29 29 29 28 27 26 26 26 25
11 11 11 11 11 12 14 15 15 14 15 15 16 19 19 19 20 21 21 20 21 23 22 22 22 22 23 24 24 25 26 27 27 28 27 28 28 28 29 28 28 27 27 27
10 10 10 11 12 12 13 14 15 15 14 14 15 16 16 18 20 20 18 18 19 19 19 19 19 21 22 24 24 25 25 25 26 27 28 28 29 30 29 29 28 28 27 27
9 9 10 11 13 13 13 14 14 15 14 14 14 15 17 18 17 16 16 16 17 16 16 18 19 21 22 24 24 25 25 26 26 27 27 28 28 28 28 28 27 26 26 26
11 11 10 10 12 13 13 12 13 14 14 15 14 16 18 17 15 15 16 16 16 16 17 18 19 20 21 22 23 24 25 25 26 26 26 26 27 27 27 27 27 26 24 24
12 12 11 11 12 13 12 13 13 13 14 15 15 16 17 16 15 16 16 15 16 17 17 18 19 20 21 21 21 23 22 23 24 24 25 26 26 26 26 26 25 25 25 25
12 12 12 12 12 11 11 11 11 12 14 14 15 16 16 16 16 16 16 16 16 17 17 18 19 20 21 21 21 22 22 23 23 24 24 25 25 26 26 25 25 25 25 24
12 12 12 11 11 11 11 11 12 12 13 14 15 16 16 16 15 16 16 17 18 18 19 19 19 20 21 21 22 22 23 23 23 24 24 25 25 26 26 25 25 24 24 24
12 11 11 10 11 11 11 11 12 12 12 14 15 16 17 16 16 17 18 18 19 20 20 20 20 20 20 21 21 22 22 22 22 22 23 23 24 24 25 25 25 24 24 24
12 11 10 10 10 10 11 11 11 11 13 14 15 17 18 18 19 19 20 20 20 21 21 21 21 21 21 20 20 21 21 20 21 21 22 22 22 23 23 23 23 23 23 22
14 13 11 10 11 11 11 10 11 12 13 14 16 17 18 19 20 20 20 21 21 21 20 20 20 20 20 20 20 19 19 19 19 20 20 21 21 21 21 21 21 20 20 20
13 12 10 10 11 12 11 11 12 12 13 15 17 18 19 19 19 20 20 20 20 20 21 21 20 20 20 19 18 18 17 17 16 16 17 17 17 17 17 17 18 18 18 19
14 12 11 11 11 12 10 11 11 12 13 14 16 17 18 18 19 20 19 19 19 20 20 19 19 18 17 16 16 15 15 14 14 13 13 12 13 12 13 14 14 14 15 15
14 12 11 11 11 10 8 9 11 12 13 14 16 17 18 19 19 19 19 20 19 18 18 18 17 16 15 14 14 14 13 13 12 11 11 10 11 11 11 12 12 12 12 12
13 12 10 10 10 9 8 9 10 11 13 15 17 18 18 18 19 19 19 19 18 17 16 16 15 13 12 12 11 11 11 10 10 9 9 9 9 9 9 9 9 9 10 10
13 11 10 9 9 8 8 9 11 12 14 16 17 18 18 18 18 18 18 17 16 16 15 14 13 11 9 9 8 8 7 7 7 6 7 7 7 7 7 6 7 7 8 9
13 11 10 9 8 8 9 10 11 12 14 16 17 17 18 17 18 18 17 16 15 14 13 11 10 8 7 7 7 6 5 5 5 5 6 6 5 5 5 5 6 6 7 8
13 11 10 9 7 8 8 9 11 12 14 15 16 16 16 17 17 16 15 14 13 12 11 9 7 7 7 6 6 5 4 4 3 3 3 3 4 4 5 5 5 6 6 6
12 10 8 7 7 7 8 9 11 12 13 14 15 15 15 16 16 15 14 12 11 10 9 8 6 6 6 5 5 5 4 4 4 3 3 3 3 3 3 3 3 4 4 5
11 9 7 6 6 7 7 8 10 11 12 13 14 15 15 15 14 13 12 11 10 9 8 7 6 6 5 5 5 5 5 4 4 3 3 3 3 3 3 3 3 3 4 4
9 8 7 6 5 5 7 7 8 10 12 13 13 14 14 14 13 12 11 10 9 8 8 7 7 6 6 6 6 5 5 5 4 4 4 3 3 3 3 3 3 3 3 3
Wind_Direction
209 207 205 206 207 212 217 226 234 248 254 258 267 272 274 278 278 277 278 276 275 274 272 270 269 269 268 264 263 263 265 266 265 263 264 264 262 259 259 254 257 256 252 249
204 200 202 208 212 223 232 238 244 248 257 260 261 266 272 275 274 275 277 276 273 273 272 272 271 271 269 268 266 265 266 266 266 267 269 267 266 261 259 256 255 253 248 251
205 205 207 213 225 233 237 247 252 256 255 260 264 268 272 275 276 275 276 275 274 274 275 274 272 272 270 269 268 266 268 268 267 268 268 270 270 268 267 261 258 257 255 255
208 210 214 220 227 239 245 253 261 267 265 263 267 272 274 275 274 275 278 277 275 274 277 276 272 271 270 268 268 267 267 268 268 268 269 270 270 270 271 268 264 264 262 259
208 211 217 226 237 252 258 260 268 269 266 267 266 271 276 275 274 276 278 277 278 277 278 279 277 273 271 270 269 267 267 267 267 266 267 269 268 269 270 269 266 265 264 262
210 219 230 239 245 255 263 266 272 272 268 269 269 273 278 279 279 279 278 274 276 277 279 280 278 276 274 271 268 268 265 265 265 266 266 267 266 268 269 267 267 266 265 263
211 219 233 243 251 261 268 271 276 277 272 275 281 282 288 293 291 291 286 284 281 278 280 281 278 278 276 274 273 271 268 266 267 268 268 268 267 268 269 269 270 267 266 265
217 224 241 252 260 268 272 274 278 282 283 283 287 292 299 302 298 295 295 291 287 284 283 279 279 279 277 274 274 273 271 269 270 270 270 269 268 267 268 268 268 267 267 266
234 239 252 258 260 268 275 277 282 284 288 291 292 294 300 309 307 302 298 296 291 292 288 283 284 282 279 277 275 274 275 274 273 271 270 269 269 268 269 269 268 268 267 265
243 248 259 265 264 267 275 278 278 284 291 294 294 300 306 308 306 304 303 301 297 297 294 288 287 285 285 283 278 277 277 276 275 272 270 270 270 269 269 267 266 267 266 265
244 255 261 266 269 267 274 274 280 291 297 299 304 306 311 309 304 307 304 301 298 296 296 291 289 289 289 286 283 282 281 279 276 274 271 271 270 270 269 267 265 264 266 265
245 257 268 272 273 273 274 280 284 294 300 304 308 311 316 314 309 307 305 302 302 299 296 293 291 291 290 287 287 286 284 283 280 277 273 272 271 270 269 267 265 264 264 264
251 256 263 267 266 267 275 283 287 295 302 305 308 315 318 318 315 311 309 306 305 304 301 297 296 293 290 287 287 287 287 286 284 281 277 274 272 271 268 265 264 264 264 265
250 253 254 259 261 264 272 283 288 296 302 306 309 315 318 317 316 315 314 311 308 306 304 301 299 297 292 290 289 288 288 286 284 282 279 276 272 269 266 263 263 263 262 262
250 256 254 252 257 263 270 279 285 293 302 306 311 315 316 318 316 314 314 312 309 307 305 303 300 297 294 292 291 288 287 286 284 283 281 278 275 271 266 264 263 262 260 259
251 253 252 253 257 264 268 274 286 298 306 309 313 315 316 315 313 312 314 313 310 309 309 306 302 298 295 294 292 289 287 287 285 283 281 278 275 271 265 263 261 259 256 255
246 250 253 256 259 266 269 276 290 302 306 308 312 314 314 314 313 313 315 314 313 311 311 309 304 299 296 295 294 290 288 289 290 288 285 281 275 271 267 264 261 257 255 256
249 254 260 265 265 270 272 281 296 304 307 312 313 314 316 317 316 317 317 316 315 313 312 310 305 300 297 296 295 292 290 289 289 290 286 283 278 273 271 265 262 257 255 256
244 247 259 266 269 277 280 290 300 308 313 319 317 317 317 318 317 317 317 317 317 314 313 311 308 302 297 296 293 290 288 287 286 287 287 282 279 273 268 266 263 258 254 254
235 243 254 265 274 282 298 297 304 312 320 320 318 318 320 320 319 319 318 318 318 318 315 314 312 308 302 299 295 290 287 286 284 287 286 282 281 273 269 264 262 257 256 256
224 235 248 263 274 291 300 305 309 316 321 319 320 322 323 322 322 321 321 321 320 320 319 319 317 313 308 306 305 299 290 284 283 286 286 285 279 276 272 266 264 263 260 258
220 229 243 258 277 295 304 309 312 315 319 321 324 326 326 326 325 324 325 325 325 325 325 325 324 323 322 319 315 309 306 302 297 294 289 289 287 286 283 275 271 270 269 264
225 234 244 260 280 294 303 310 315 318 322 326 330 332 332 332 331 331 332 332 333 335 334 332 333 338 337 336 337 331 328 320 320 324 317 303 297 295 298 292 283 276 275 271
225 237 253 264 278 295 308 314 318 325 328 331 334 336 337 338 339 339 341 343 346 348 348 348 349 352 352 355 357 -0 1 355 357 358 350 343 332 327 324 315 304 290 289 288
217 233 251 263 278 294 309 315 322 330 334 338 339 340 343 345 348 350 352 355 358 2 4 7 11 12 14 17 18 18 17 15 14 14 10 4 0 357 343 331 327 318 311 313
217 228 241 252 275 304 320 330 333 338 342 343 343 346 351 354 357 0 4 8 12 16 18 22 24 29 32 35 34 28 28 28 30 26 22 16 19 18 11 1 351 345 344 347
Height
5814 5817 5818 5819 5820 5821 5822 5823 5823 5824 5823 5823 5823 5822 5822 5822 5822 5821 5821 5820 5819 5819 5818 5818 5817 5817 5817 5817 5817 5818 5818 5817 5815 5816 5816 5816 5816 5819 5820 5821 5821 5822 5822 5822
5813 5814 5815 5816 5817 5818 5819 5819 5820 5820 5820 5819 5818 5818 5818 5817 5817 5816 5816 5814 5814 5813 5812 5812 5811 5810 5809 5810 5810 5811 5812 5811 5810 5809 5809 5811 5810 5812 5814 5814 5815 5815 5815 5816
5810 5812 5812 5813 5814 5815 5816 5816 5816 5816 5816 5816 5815 5814 5813 5812 5812 5811 5810 5808 5807 5807 5806 5806 5805 5804 5803 5804 5804 5804 5804 5805 5805 5804 5804 5805 5806 5806 5807 5807 5808 5809 5810 5811
5807 5808 5809 5810 5811 5812 5812 5813 5813 5813 5812 5811 5811 5809 5809 5807 5806 5805 5804 5803 5802 5801 5801 5800 5799 5798 5798 5798 5798 5798 5798 5798 5799 5799 5799 5800 5800 5801 5801 5801 5801 5802 5804 5805
5804 5805 5806 5806 5808 5808 5809 5809 5809 5809 5808 5807 5806 5805 5804 5802 5801 5800 5798 5797 5796 5796 5795 5794 5793 5793 5792 5791 5791 5792 5792 5792 5792 5793 5793 5793 5794 5795 5796 5796 5795 5796 5798 5799
5802 5802 5803 5804 5805 5805 5806 5806 5805 5804 5804 5804 5802 5801 5799 5797 5796 5794 5792 5790 5790 5790 5789 5788 5787 5786 5785 5784 5784 5784 5785 5785 5785 5786 5786 5787 5788 5788 5789 5789 5789 5790 5791 5792
5800 5800 5800 5801 5802 5802 5802 5802 5802 5801 5800 5799 5798 5796 5794 5792 5790 5788 5786 5784 5784 5784 5784 5782 5781 5780 5779 5778 5778 5778 5778 5778 5778 5778 5779 5780 5781 5782 5782 5782 5782 5783 5784 5785
5797 5798 5799 5799 5799 5799 5798 5798 5798 5797 5796 5795 5793 5791 5790 5787 5785 5783 5781 5779 5779 5778 5777 5777 5776 5775 5774 5774 5773 5772 5772 5772 5772 5772 5772 5773 5774 5775 5775 5775 5776 5776 5777 5778
5794 5796 5796 5795 5795 5795 5795 5794 5794 5793 5792 5790 5789 5787 5785 5783 5780 5778 5777 5776 5774 5773 5773 5772 5771 5770 5769 5768 5767 5766 5765 5765 5765 5765 5765 5765 5766 5767 5767 5768 5768 5768 5769 5770
5791 5792 5793 5793 5792 5792 5792 5791 5791 5789 5788 5786 5785 5783 5781 5779 5777 5775 5774 5772 5771 5769 5768 5767 5766 5765 5764 5762 5761 5760 5759 5758 5758 5758 5758 5758 5758 5759 5759 5759 5760 5760 5761 5762
5788 5789 5790 5789 5789 5789 5789 5788 5787 5786 5784 5783 5781 5781 5777 5775 5773 5771 5770 5768 5766 5765 5763 5762 5761 5759 5758 5756 5755 5753 5752 5751 5750 5750 5750 5751 5751 5751 5751 5751 5752 5753 5754 5754
5785 5786 5786 5787 5787 5786 5785 5784 5784 5783 5782 5779 5778 5779 5774 5771 5769 5767 5765 5764 5762 5760 5758 5757 5755 5753 5752 5750 5749 5747 5746 5745 5744 5743 5743 5743 5743 5743 5743 5743 5744 5745 5746 5747
5782 5783 5783 5783 5785 5784 5782 5781 5780 5780 5779 5777 5775 5776 5771 5767 5765 5763 5761 5759 5757 5755 5753 5751 5749 5747 5745 5744 5742 5741 5739 5738 5737 5736 5735 5735 5735 5735 5735 5735 5736 5737 5738 5739
5779 5779 5780 5781 5780 5780 5779 5778 5777 5776 5775 5773 5772 5770 5767 5764 5761 5759 5756 5754 5752 5750 5748 5745 5743 5741 5739 5737 5735 5734 5733 5731 5730 5729 5728 5728 5727 5727 5727 5727 5728 5729 5730 5731
5776 5777 5777 5777 5777 5777 5776 5775 5774 5773 5772 5770 5768 5765 5763 5760 5757 5754 5752 5749 5747 5744 5742 5739 5737 5734 5732 5730 5729 5727 5726 5724 5723 5722 5721 5720 5720 5719 5719 5720 5720 5721 5722 5723
5773 5774 5774 5774 5774 5773 5773 5772 5771 5770 5768 5766 5764 5761 5759 5755 5752 5750 5747 5744 5741 5739 5736 5733 5730 5728 5726 5724 5722 5721 5719 5718 5716 5715 5714 5713 5713 5712 5712 5713 5713 5714 5715 5716
5770 5771 5771 5771 5770 5770 5770 5769 5768 5766 5764 5762 5760 5758 5754 5751 5748 5745 5742 5739 5736 5733 5730 5727 5724 5722 5720 5718 5716 5714 5713 5712 5710 5709 5708 5707 5706 5706 5706 5706 5707 5708 5709 5709
5767 5767 5767 5767 5768 5767 5769 5766 5764 5763 5761 5759 5756 5753 5750 5747 5743 5740 5737 5734 5730 5727 5724 5721 5718 5716 5714 5712 5710 5709 5708 5706 5705 5704 5703 5702 5701 5701 5701 5701 5702 5702 5703 5703
5764 5764 5764 5764 5764 5764 5764 5762 5761 5759 5757 5755 5752 5748 5745 5742 5739 5735 5732 5729 5725 5722 5719 5716 5713 5711 5709 5707 5705 5704 5703 5702 5701 5700 5699 5698 5698 5697 5697 5697 5697 5698 5698 5699
5760 5762 5762 5761 5760 5760 5762 5759 5757 5757 5754 5751 5748 5744 5741 5737 5734 5731 5727 5724 5720 5717 5714 5711 5709 5706 5704 5703 5701 5700 5699 5698 5697 5696 5695 5695 5694 5694 5694 5694 5694 5694 5695 5695
5757 5758 5759 5758 5758 5757 5758 5756 5754 5753 5752 5747 5743 5740 5737 5733 5731 5727 5723 5719 5716 5713 5710 5707 5705 5703 5701 5700 5698 5697 5696 5695 5694 5694 5693 5692 5692 5691 5691 5691 5691 5691 5691 5692
5753 5755 5756 5755 5755 5757 5754 5753 5751 5750 5747 5743 5740 5736 5733 5729 5726 5722 5718 5715 5712 5709 5706 5704 5702 5700 5699 5697 5696 5695 5694 5693 5692 5692 5691 5690 5689 5689 5689 5689 5689 5689 5689 5689
5751 5753 5753 5754 5755 5753 5751 5750 5748 5746 5743 5740 5737 5733 5730 5726 5722 5719 5715 5712 5709 5706 5704 5702 5700 5698 5697 5696 5695 5694 5693 5692 5691 5690 5689 5689 5688 5688 5687 5687 5686 5686 5686 5686
5748 5749 5750 5750 5750 5750 5749 5747 5745 5743 5740 5737 5734 5731 5727 5723 5720 5716 5713 5710 5707 5704 5702 5700 5699 5697 5696 5695 5694 5693 5692 5691 5690 5689 5689 5688 5687 5687 5686 5685 5685 5685 5685 5684
5745 5747 5747 5747 5748 5747 5746 5744 5743 5741 5738 5735 5732 5728 5725 5721 5718 5714 5711 5708 5706 5703 5701 5700 5698 5697 5696 5695 5694 5693 5692 5691 5690 5689 5688 5687 5687 5686 5685 5685 5684 5684 5683 5683
5743 5745 5746 5746 5746 5745 5744 5742 5740 5738 5735 5733 5730 5727 5723 5720 5717 5714 5711 5708 5706 5703 5702 5700 5698 5697 5696 5695 5694 5693 5692 5691 5690 5689 5688 5687 5686 5686 5685 5684 5684 5683 5683 5682